Regional Weather Roundup
Issued by NWS

Home | Current Version | Previous Version | Text Only | Print | Product List | Glossary On
Versions: 1 2 3 4 5 6 7 8 9 10 11 12 13 14 15 16 17 18 19 20 21 22 23 24 25 26 27 28 29 30 31 32 33 34 35 36 37 38 39 40 41 42 43 44 45 46 47 48 49 50
000
ASUS44 KEWX 210802
RWRTX
SOUTH TEXAS REGIONAL WEATHER ROUNDUP
NATIONAL WEATHER SERVICE AUSTIN/SAN ANTONIO TX
200 AM CST SUN DEC 21 2014

NOTE: "FAIR" INDICATED FEW OR NO CLOUDS BELOW 12,000 FEET WITH NO
SIGNIFICANT WEATHER AND/OR OBSTRUCTIONS TO VISIBILITY.

* - THESE STATIONS ARE NOT NWS OR FAA STATIONS...AND ARE NOT SUBJECT
    TO NWS AND FAA QUALITY CONTROL.

TXZ171-172-183>190-210900-
TEXAS HILL COUNTRY AND EDWARDS PLATEAU

CITY           SKY/WX    TMP DP  RH WIND       PRES   REMARKS
JUNCTION       CLOUDY    49  43  80 SW6       30.10F WCI  46
*LLANO         CLOUDY    46  45  93 CALM      30.17F
BURNET         CLOUDY    47  44  90 SE5       30.15F WCI  45
*HORSESHOE BAY CLOUDY    49  44  83 S3        30.13F
*KERRVILLE     CLOUDY    47  44  87 SE7       30.13F WCI  44
*FREDERICKSBRG CLOUDY    46  43  89 S6        30.11F WCI  43
*ROCKSPRINGS   CLOUDY    45  43  93 S8        30.12S WCI  40
*BOERNE STAGE  CLOUDY    46  43  87 CALM      30.14F
*CASTROVILLE   CLOUDY    52  44  75 CALM      30.15F
HONDO          CLOUDY    51  44  77 S3        30.15F
*UVALDE        CLOUDY    48  43  83 SE5       30.15F WCI  46
DEL RIO        CLOUDY    50  45  83 SE13      30.11F WCI  45
LAUGHLIN AFB   CLOUDY    50  44  82 S12       30.11F WCI  45
CARRIZO SPRGS  CLOUDY    50  45  81 CALM      30.14F
$$

TXZ173-191>194-202-209-217>225-228-210900-
CENTRAL AND SOUTH CENTRAL TEXAS

CITY           SKY/WX    TMP DP  RH WIND       PRES   REMARKS
GEORGETOWN     CLOUDY    48  46  93 CALM      30.14F
AUSTIN/BERGSTM CLOUDY    50  48  93 SE3       30.15F
AUSTIN/MABRY   CLOUDY    50  48  93 CALM      30.16F FOG
*AUSTIN/EXEC   CLOUDY    48  48 100 CALM      30.16F FOG
*LAGO VISTA    CLOUDY    49  47  93 CALM      30.15S FOG
SAN MARCOS     CLOUDY    50  46  87 E5        30.15F WCI  48
NEW BRAUNFELS  CLOUDY    52  48  86 E5        30.14F
RANDOLPH AFB   NOT AVBL
PT SAN ANTONIO NOT AVBL
SAN ANTONIO    CLOUDY    52  48  86 E6        30.13F
STINSON FIELD  CLOUDY    53  47  79 E5        30.12F
*PLEASANTON    CLOUDY    53  48  85 CALM      30.14F
*LA GRANGE     CLOUDY    52  49  90 CALM      30.15S
*GIDDINGS      CLOUDY    49  46  87 CALM      30.20S
*GONZALES      NOT AVBL
$$

TXZ163>164-176>182-195>201-210>213-226-227-235-210900-
SOUTHEAST TEXAS

CITY           SKY/WX    TMP DP  RH WIND       PRES   REMARKS
COLLEGE STN    CLOUDY    50  45  83 NE3       30.17S
*BRYAN         CLOUDY    48  45  89 CALM      30.19R
*CALDWELL      CLOUDY    48  46  93 CALM      30.20F FOG
*CROCKETT        N/A     43  43 100 CALM      30.21S
*BRENHAM       CLOUDY    52  49  89 CALM      30.17S
HUNTSVILLE     CLOUDY    48  45  89 E5        30.17S WCI  46
CONROE         CLOUDY    48  44  86 CALM      30.17F
HOUSTON BUSH   CLOUDY    50  45  83 NE6       30.16F WCI  48
HOUSTON HOBBY  CLOUDY    51  46  83 NE5       30.16S
*HOUSTON SW AP CLOUDY    45  42  90 NE5       30.17S WCI  42
PEARLAND       CLOUDY    52  47  83 E12       30.17S
HOUSTON HOOKS  CLOUDY    50  45  83 E6        30.17S WCI  48
ELLINGTON FLD  CLOUDY    52  50  93 N3        30.16F
SUGAR LAND     CLOUDY    53  46  77 NE6       30.16S
*HOUSTON EXEC  CLOUDY    50  48  93 NE3       30.17F
*CLEVELAND MUN CLOUDY    46  46  97 CALM      30.18F
*WHARTON       CLOUDY    52  50  93 CALM      30.17F FOG
*COLUMBUS      CLOUDY    50  49  98 CALM      30.16F
$$

TXZ214>216-236>238-210900-
THE UPPER TEXAS COAST

CITY           SKY/WX    TMP DP  RH WIND       PRES   REMARKS
*ORANGE        CLEAR     43  42  98 CALM      30.17F FOG
PORT ARTHUR    CLEAR     45  43  93 N7        30.15F WCI  41
GALVESTON      CLOUDY    52  50  93 N10       30.15F
ANGLETON       CLOUDY    51  49  92 N7        30.15S
*BAY CITY        N/A     54  52  95 CALM      30.16S
PALACIOS       CLOUDY    54  51  90 NE7       30.16F
$$

TXZ229>234-239>247-210900-
TEXAS COASTAL BEND AND RIO GRANDE PLAINS

CITY           SKY/WX    TMP DP  RH WIND       PRES   REMARKS
VICTORIA       CLOUDY    54  51  90 CALM      30.16F
*BEEVILLE      CLOUDY    53  52  99 E6        30.14F
ROCKPORT       CLOUDY    54  51  90 N8        30.15F
*PORT ARANSAS  CLOUDY    55  52  90 N12       30.14F
*PORT LAVACA   CLOUDY    53  52  96 N6        30.17F
*INGLESIDE     CLOUDY    54  52  94 N7        30.14F FOG
CORPUS CHRISTI CLOUDY    54  51  90 NE9       30.13F
CORPUS NAS     CLOUDY    56  53  90 N14       30.13F
*ROBSTOWN      NOT AVBL
ALICE          CLOUDY    54  50  86 E7        30.13F
KINGSVILLE NAS CLOUDY    55  52  89 N9        30.12F
COTULLA        CLOUDY    53  46  77 SE7       30.14F
LAREDO         NOT AVBL
$$

TXZ248>255-210900-
DEEP SOUTH TEXAS

CITY           SKY/WX    TMP DP  RH WIND       PRES   REMARKS
BROWNSVILLE    CLOUDY    58  55  90 NW8       30.09F
PORT ISABEL    CLOUDY    60  57  89 N9        30.08F
*SOUTH PADRE   CLOUDY    64  59  82 NE15      30.07F
HARLINGEN      CLOUDY    57  54  89 N9        30.09F
*HEBBRONVILLE  CLOUDY    52  49  91 NE5       30.14F FOG
MCALLEN        CLOUDY    56  51  84 N8        30.12F
*WESLACO       CLOUDY    56  51  85 N5        30.11F
FALFURRIAS     CLOUDY    55  50  85 N7        30.13F
EDINBURG       CLOUDY    57  51  82 N7        30.13S
*ZAPATA        CLOUDY    52  51  96 CALM      30.13F
$$

TXZ213>215-236>238-242>244-246-247-251-254-255-210900-
CMAN STATIONS

STATION/POSITION TIME  TEMP    WIND        PRES    WAVE
                       AIR SEA DIR/SP/G            HT/PER
                 (UTC) (F)     (DEG/KT/KT) (MB)    (FT/S)
SABINE PASS      0700   47 60   30/  8/ 11 1021.2
SEA RIM ST PARK  0700   48      20/  6/  7 1021.9
NORTH JETTY/GLS  0700   52 60   70/ 13/ 16   N/A
EAGLE POINT      0700   52 59   70/ 12/ 14 1021.0
MORGANS POINT    0700   50      40/  6/  9 1021.1
MISSION/ARANSAS  0700   54     350/  9     1022.0
PORT O`CONNOR    0700           40/  8/ 11   N/A
PORT ARANSAS     0700   56 63  360/  9/ 10 1021.3
MALAQUITE BEACH  0700   56 65  360/ 12/ 14 1019.8
BAFFIN BAY       0700   56     360/ 12/ 15 1020.0
PORT ISABEL      0700   62 66  350/ 10/ 13 1018.5
$$

GMZ080-GMZ150>470-210900-
OFFSHORE BUOY REPORTS

STATION/POSITION TIME  TEMP    WIND        PRES    WAVE
                       AIR SEA DIR/SP/G            HT/PER
                 (UTC) (F)     (DEG/KT/KT) (MB)    (FT/S)
20 E GALVESTON   0800   56 64   60/ 14/ 16 1020.1    3/ 5
90 E PT ARANSAS  0800   63 72   30/ 14/ 17 1019.7    5/ 7
35 NE PT MANSFLD 0700   65 73   30/ 16/ 17 1019.3    4/ 7
200 E PT ISABEL  0700   70 73   60/ 10/ 12 1017.6    5/ 7
$$



USA.gov is the U.S. government's official web portal to all federal, state and local government web resources and services.